Tiempo cada hora Muratove

Hoy, 22 Octubre, Jueves

Tiempo Temperatura Precipitaciones Viento Presión Humedad
00:00 +9°C° 0 mm 3 mps 760 mmHg 51%
01:00 +9°C° 0 mm 3 mps 759 mmHg 53%
02:00 +9°C° 0 mm 3 mps 759 mmHg 56%
03:00 +8°C° 0 mm 4 mps 759 mmHg 59%
04:00 +9°C° 0 mm 3 mps 759 mmHg 61%
05:00 +8°C° 0 mm 3 mps 758 mmHg 64%
06:00 +8°C° 0 mm 3 mps 758 mmHg 67%
07:00 +9°C° 0 mm 3 mps 758 mmHg 65%
08:00 +10°C° 0 mm 4 mps 758 mmHg 63%
09:00 +11°C° 0 mm 4 mps 758 mmHg 62%
10:00 +12°C° 0 mm 4 mps 758 mmHg 59%
11:00 +14°C° 0 mm 4 mps 758 mmHg 57%
12:00 +15°C° 0 mm 4 mps 758 mmHg 54%
13:00 +16°C° 0 mm 5 mps 758 mmHg 53%
14:00 +16°C° 0 mm 5 mps 758 mmHg 51%
15:00 +17°C° 0 mm 5 mps 758 mmHg 49%
16:00 +17°C° 0 mm 4 mps 757 mmHg 54%
17:00 +16°C° 0 mm 3 mps 757 mmHg 59%
18:00 +14°C° 0 mm 3 mps 757 mmHg 63%
19:00 +14°C° 0 mm 3 mps 757 mmHg 66%
20:00 +13°C° 0 mm 3 mps 757 mmHg 69%
21:00 +13°C° 0 mm 3 mps 757 mmHg 72%
22:00 +13°C° 0 mm 3 mps 757 mmHg 74%
23:00 +12°C° 0 mm 3 mps 757 mmHg 75%

Mañana, 23 Octubre, Viernes

Tiempo Temperatura Precipitaciones Viento Presión Humedad
00:00 +11°C° 0 mm 3 mps 756 mmHg 77%
01:00 +11°C° 0 mm 3 mps 756 mmHg 77%
02:00 +11°C° 0 mm 3 mps 756 mmHg 77%
03:00 +11°C° 0 mm 3 mps 756 mmHg 77%
04:00 +11°C° 0 mm 3 mps 756 mmHg 74%
05:00 +11°C° 0 mm 4 mps 756 mmHg 71%
06:00 +11°C° 0 mm 4 mps 756 mmHg 69%
07:00 +12°C° 0 mm 4 mps 756 mmHg 63%
08:00 +13°C° 0 mm 5 mps 756 mmHg 57%
09:00 +14°C° 0 mm 5 mps 756 mmHg 51%
10:00 +15°C° 0 mm 5 mps 756 mmHg 47%
11:00 +16°C° 0 mm 5 mps 756 mmHg 43%
12:00 +19°C° 0 mm 4 mps 756 mmHg 40%
13:00 +19°C° 0 mm 4 mps 756 mmHg 38%
14:00 +20°C° 0 mm 4 mps 755 mmHg 37%
15:00 +21°C° 0 mm 4 mps 755 mmHg 36%
16:00 +19°C° 0 mm 3 mps 755 mmHg 40%
17:00 +18°C° 0 mm 3 mps 755 mmHg 43%
18:00 +17°C° 0 mm 3 mps 754 mmHg 47%
19:00 +16°C° 0 mm 3 mps 754 mmHg 52%
20:00 +16°C° 0 mm 3 mps 754 mmHg 58%
21:00 +16°C° 0 mm 3 mps 754 mmHg 63%
22:00 +15°C° 0 mm 4 mps 753 mmHg 67%
23:00 +15°C° 0 mm 4 mps 753 mmHg 70%

Pasado mañana, 24 Octubre, Sábado

Tiempo Temperatura Precipitaciones Viento Presión Humedad
00:00 +15°C° 0 mm 5 mps 753 mmHg 73%
01:00 +15°C° 0 mm 5 mps 753 mmHg 74%
02:00 +14°C° 0 mm 5 mps 753 mmHg 75%
03:00 +14°C° 0 mm 5 mps 753 mmHg 77%
04:00 +14°C° 0 mm 5 mps 752 mmHg 79%
05:00 +14°C° 0 mm 4 mps 752 mmHg 82%
06:00 +13°C° 0 mm 4 mps 752 mmHg 85%
07:00 +14°C° 0 mm 4 mps 753 mmHg 85%
08:00 +14°C° 0 mm 4 mps 753 mmHg 84%
09:00 +14°C° 0 mm 4 mps 753 mmHg 84%
10:00 +15°C° 0 mm 4 mps 753 mmHg 79%
11:00 +15°C° 0 mm 4 mps 753 mmHg 74%
12:00 +17°C° 0 mm 3 mps 753 mmHg 70%
13:00 +17°C° 0 mm 3 mps 753 mmHg 66%
14:00 +18°C° 0 mm 3 mps 753 mmHg 63%
15:00 +18°C° 0 mm 3 mps 753 mmHg 60%
16:00 +17°C° 0 mm 2 mps 752 mmHg 64%
17:00 +16°C° 0 mm 1 mps 752 mmHg 68%
18:00 +16°C° 0 mm 1 mps 752 mmHg 72%
19:00 +15°C° 0 mm 1 mps 752 mmHg 75%
20:00 +15°C° 0 mm 1 mps 752 mmHg 78%
21:00 +15°C° 0 mm 2 mps 752 mmHg 81%
22:00 +14°C° 0 mm 2 mps 752 mmHg 83%
23:00 +14°C° 0 mm 2 mps 752 mmHg 86%

, 25 Octubre, Domingo

Tiempo Temperatura Precipitaciones Viento Presión Humedad
00:00 +14°C° 0 mm 2 mps 752 mmHg 88%
01:00 +13°C° 0 mm 3 mps 751 mmHg 88%
02:00 +13°C° 0 mm 3 mps 751 mmHg 88%
03:00 +14°C° 0 mm 4 mps 751 mmHg 88%
04:00 +14°C° 0 mm 4 mps 751 mmHg 85%
05:00 +14°C° 0 mm 5 mps 751 mmHg 82%
06:00 +15°C° 0 mm 5 mps 751 mmHg 79%
07:00 +15°C° 0 mm 5 mps 751 mmHg 74%
08:00 +15°C° 0 mm 6 mps 751 mmHg 70%
09:00 +15°C° 0 mm 6 mps 751 mmHg 65%
10:00 +16°C° 0 mm 6 mps 751 mmHg 61%
11:00 +17°C° 0 mm 6 mps 751 mmHg 57%
12:00 +18°C° 0 mm 7 mps 751 mmHg 53%
13:00 +17°C° 0 mm 7 mps 752 mmHg 54%
14:00 +17°C° 0 mm 7 mps 752 mmHg 56%
15:00 +17°C° 0 mm 7 mps 752 mmHg 57%
16:00 +16°C° 0 mm 7 mps 752 mmHg 58%
17:00 +15°C° 0 mm 6 mps 753 mmHg 60%
18:00 +14°C° 0 mm 6 mps 753 mmHg 62%
19:00 +13°C° 0 mm 5 mps 754 mmHg 65%
20:00 +12°C° 0 mm 5 mps 754 mmHg 68%
21:00 +11°C° 0 mm 4 mps 755 mmHg 71%
22:00 +10°C° 0 mm 3 mps 755 mmHg 72%
23:00 +10°C° 0 mm 3 mps 756 mmHg 74%

25 Octubre, Domingo

Tiempo Temperatura Precipitaciones Viento Presión Humedad
00:00 +14°C° 0 mm 2 mps 752 mmHg 88%
01:00 +13°C° 0 mm 3 mps 751 mmHg 88%
02:00 +13°C° 0 mm 3 mps 751 mmHg 88%
03:00 +14°C° 0 mm 4 mps 751 mmHg 88%
04:00 +14°C° 0 mm 4 mps 751 mmHg 85%
05:00 +14°C° 0 mm 5 mps 751 mmHg 82%
06:00 +15°C° 0 mm 5 mps 751 mmHg 79%
07:00 +15°C° 0 mm 5 mps 751 mmHg 74%
08:00 +15°C° 0 mm 6 mps 751 mmHg 70%
09:00 +15°C° 0 mm 6 mps 751 mmHg 65%
10:00 +16°C° 0 mm 6 mps 751 mmHg 61%
11:00 +17°C° 0 mm 6 mps 751 mmHg 57%
12:00 +18°C° 0 mm 7 mps 751 mmHg 53%
13:00 +17°C° 0 mm 7 mps 752 mmHg 54%
14:00 +17°C° 0 mm 7 mps 752 mmHg 56%
15:00 +17°C° 0 mm 7 mps 752 mmHg 57%
16:00 +16°C° 0 mm 7 mps 752 mmHg 58%
17:00 +15°C° 0 mm 6 mps 753 mmHg 60%
18:00 +14°C° 0 mm 6 mps 753 mmHg 62%
19:00 +13°C° 0 mm 5 mps 754 mmHg 65%
20:00 +12°C° 0 mm 5 mps 754 mmHg 68%
21:00 +11°C° 0 mm 4 mps 755 mmHg 71%
22:00 +10°C° 0 mm 3 mps 755 mmHg 72%
23:00 +10°C° 0 mm 3 mps 756 mmHg 74%

26 Octubre, Lunes

Tiempo Temperatura Precipitaciones Viento Presión Humedad
00:00 +9°C° 0 mm 2 mps 756 mmHg 75%
01:00 +9°C° 0 mm 2 mps 757 mmHg 79%
02:00 +8°C° 0 mm 2 mps 757 mmHg 83%
03:00 +8°C° 0 mm 2 mps 757 mmHg 86%
04:00 +7°C° 0 mm 2 mps 757 mmHg 88%
05:00 +7°C° 0 mm 2 mps 758 mmHg 89%
06:00 +8°C° 0 mm 1 mps 758 mmHg 91%
07:00 +9°C° 0 mm 1 mps 758 mmHg 85%
08:00 +9°C° 0 mm 1 mps 759 mmHg 80%
09:00 +9°C° 0 mm 2 mps 759 mmHg 75%
10:00 +12°C° 0 mm 2 mps 759 mmHg 67%
11:00 +13°C° 0 mm 2 mps 759 mmHg 60%
12:00 +15°C° 0 mm 2 mps 759 mmHg 52%
13:00 +15°C° 0 mm 2 mps 759 mmHg 49%
14:00 +16°C° 0 mm 2 mps 759 mmHg 46%
15:00 +16°C° 0 mm 2 mps 759 mmHg 43%
16:00 +15°C° 0 mm 2 mps 759 mmHg 48%
17:00 +13°C° 0 mm 2 mps 760 mmHg 52%
18:00 +12°C° 0 mm 2 mps 760 mmHg 56%
19:00 +10°C° 0 mm 2 mps 760 mmHg 60%
20:00 +9°C° 0 mm 2 mps 760 mmHg 63%
21:00 +9°C° 0 mm 3 mps 761 mmHg 66%
22:00 +8°C° 0 mm 3 mps 761 mmHg 67%
23:00 +7°C° 0 mm 3 mps 761 mmHg 68%

27 Octubre, Martes

Tiempo Temperatura Precipitaciones Viento Presión Humedad
00:00 +7°C° 0 mm 3 mps 761 mmHg 69%
01:00 +5°C° 0 mm 3 mps 761 mmHg 69%
02:00 +5°C° 0 mm 3 mps 761 mmHg 69%
03:00 +4°C° 0 mm 3 mps 761 mmHg 69%
04:00 +4°C° 0 mm 3 mps 761 mmHg 70%
05:00 +3°C° 0 mm 3 mps 762 mmHg 71%
06:00 +3°C° 0 mm 3 mps 762 mmHg 72%
07:00 +4°C° 0 mm 3 mps 762 mmHg 68%
08:00 +5°C° 0 mm 3 mps 762 mmHg 64%
09:00 +5°C° 0 mm 4 mps 763 mmHg 60%
10:00 +7°C° 0 mm 4 mps 762 mmHg 53%
11:00 +10°C° 0 mm 4 mps 762 mmHg 46%
12:00 +12°C° 0 mm 5 mps 762 mmHg 40%
13:00 +12°C° 0 mm 4 mps 762 mmHg 38%
14:00 +13°C° 0 mm 4 mps 762 mmHg 36%
15:00 +13°C° 0 mm 4 mps 762 mmHg 34%
16:00 +12°C° 0 mm 4 mps 762 mmHg 36%
17:00 +11°C° 0 mm 3 mps 762 mmHg 38%
18:00 +10°C° 0 mm 3 mps 762 mmHg 40%
19:00 +9°C° 0 mm 3 mps 762 mmHg 40%
20:00 +9°C° 0 mm 3 mps 762 mmHg 40%
21:00 +8°C° 0 mm 3 mps 762 mmHg 41%
22:00 +7°C° 0 mm 3 mps 762 mmHg 42%
23:00 +7°C° 0 mm 3 mps 762 mmHg 44%
Mostrar más

Necesitamos Su Consentimiento

Meteoprog y nuestros Proveedores de Servicios pueden almacenar y acceder a sus datos personales como cookies, identificadores de dispositivo u otras tecnologías similares de su dispositivo y procesar dichos datos para personalizar contenido y anuncios, además de ofrecer funciones de redes sociales y analizar el tráfico.

  • Almacenar y/o acceder a información en su dispositivo

    Se puede almacenar o acceder a cookies, identificadores de dispositivo u otra información de su dispositivo para los fines anteriormente indicados.

  • Anuncios y contenido personalizados, medición de anuncios y contenido, percepciones del público, y desarrollo de productos

    Los anuncios y el contenido pueden personalizarse en base a su perfil. Se pueden añadir más datos para personalizar mejor los anuncios y contenidos. Se puede medir el rendimiento de los anuncios y contenidos. Se puede obtener la percepción sobre el público que ha visto los anuncios y contenidos. Dichos datos pueden usarse para desarrollar o mejorar la experiencia del usuario, sistemas y software.

Al hacer clic en ‘Estoy De Acuerdo’ usted permitirá el uso de las cookies, identificadores de dispositivo, balizas web u otras tecnologías similares indicadas. Su configuración puede cambiarse desde el navegador de su dispositivo.

Para ciertos fines, los intereses legítimos pueden ser considerados por encima del consentimiento. Puede leer más sobre ello en nuestra Política de Privacidad y Cookies.